PROFILE

 METAR AND TAF INFORMATION
ADDS - METARS form results

(1139 UTC 15 May 2021)
http://aviationweather.gov/metar/data/
 
LFLL 151130Z 19017KT 9999 -RA FEW030 OVC056 11/08 Q1011 NOSIG
LFLL 151100Z 19018KT 9999 -RA FEW030 OVC056 11/08 Q1011 NOSIG
TAF LFLL 151100Z 1512/1618 18010KT 9999 -RA SCT030 BKN050 TEMPO 1512/1515 18015G25KT PROB40 TEMPO 1518/1607 4000 BR BKN012 OVC040 FM161200 VRB05KT 9999 SCT040 BKN080 TEMPO 1612/1618 27015KT PROB30 TEMPO 1612/1618 -SHRA BKN040TCU 

 AIRPORT MAP

 RUNWAY INFORMATION
Runway 18L Runway length 8760 ft Runway width 148 ft
Runway elevation 780 ft Runway displaced threshold 0 ft Runway heading 175
Runway 36R Runway length 8760 ft Runway width 148 ft
Runway elevation 821 ft Runway displaced threshold 0 ft Runway heading 355
Runway 18R Runway length 13124 ft Runway width 148 ft
Runway elevation 758 ft Runway displaced threshold 0 ft Runway heading 175
Runway 36L Runway length 13124 ft Runway width 148 ft
Runway elevation 813 ft Runway displaced threshold 0 ft Runway heading 355

 AIRPORT FREQUENCIES
Type A/D Name Lyon appro Frequency 136.075 MHZ
Type ATIS Name ATIS Frequency 126.175 MHZ
Type GND Name GND Frequency 121.825 MHZ
Type INFO Name INFO Frequency 135.2 MHZ
Type PFLT Name PREFLIGHT Frequency 121.7 MHZ
Type TWR Name TWR Frequency 120.45 MHZ

 AIRPORT NEAR NAVIGATION AIDS
Type VOR-DME Name Lyon/Saint Exupery Frequency 114750 KHZ